Location: Newark
(42.8481°N, 0.4872°E)
Time: 06:45:58
(UTC+00:00)

Vanguard 2 - Pass Details

Date: 28 October 2020
Orbit: 554 x 2937 km, 32.9° (Epoch: 28 November)

Event Time Altitude Azimuth Distance (km) Brightness Sun altitude
Rises 17:58:49 0° 211° (SSW) 4,841 12.2 -12.2°
Reaches altitude 10° 18:02:05 10° 201° (SSW) 4,176 11.6 -12.8°
Maximum altitude 18:12:14 32° 144° (SE) 3,507 10.6 -14.6°
Enters shadow 18:21:48 18° 99° (E) 4,850 10.9 -16.4°
Drops below altitude 10° 18:25:54 10° 90° (E) 5,667 - -17.1°
Sets 18:31:14 0° 82° (E) 6,783 - -18.1°
